Thunderstorms From: 21-05-2018 15:00 Until: 22-05-2018 15:00 warning for: Thunderstorms Level: Yellow info button

Although rather usual in this region, locally or potentially dangerous phenomena are expected. (such as local winds, summer thunderstorms, rising streams or high waves) Be aware and pay attention to the latest weather updates, especially if you carry out activities exposed to weather or close to a stream or shoreline. 


Meteo18 Weather Cam more information Meteo18 Weather Cam


warning for Thunderstorms more information blitzortung!


Rain radar more information rain snow radar


Visit our other weather sites:

Template documentation
and downloads

And another site



Weather Underground History page Text

Daily Summary for January 28, 2017 Units:  Metric    English   Both
« Previous Day
Next Day »
Daily Weekly Monthly Yearly Custom
  High: Low: Average:
Temperature: -17.8 °C -18 °C -14.8 °C
Dew Point: -17.8 °C -18.2 °C -15.6 °C
Humidity: Humidity % 69 % 91 %
Wind Speed: 0 km/h 0 km/h 3.1 km/h
Wind Gust: 0 km/h - -
Wind:- - South
Pressure: 0 hPa 34347.6 hPa -
Precipitation: 193.04 mm    
Historical Graphs
 
 
Tabular Data for January 28, 2017
Time Temperature Dew Point Pressure Wind Wind Speed Wind Gust Humidity Rainfall Rate (Hourly)
-17.8 °C -17.8 °C 0 hPa Calm     Humidity % 0 mm
00:02 -13.5 °C -16.4 °C 34347.6 hPa ESE 7.7 km/h 12.9 km/h 69 % 0 mm
00:07 -13.5 °C -16.4 °C 34347.6 hPa ESE 2.6 km/h 15.6 km/h 69 % 0 mm
00:12 -13.6 °C -16.4 °C 34347.6 hPa SE 2.6 km/h 15.6 km/h 70 % 0 mm
00:17 -13.6 °C -16.4 °C 34361.1 hPa SE 7.7 km/h 18.2 km/h 70 % 0 mm
00:22 -13.7 °C -16.5 °C 34361.1 hPa ESE 5.1 km/h 18.2 km/h 70 % 0 mm
00:32 -13.7 °C -16.5 °C 34347.6 hPa SE 2.6 km/h 15.6 km/h 70 % 0 mm
00:42 -13.6 °C -16.4 °C 34347.6 hPa ESE 2.6 km/h 12.9 km/h 70 % 0 mm
00:52 -13.6 °C -16.4 °C 34347.6 hPa Calm   12.9 km/h 70 % 0 mm
00:57 -13.7 °C -16.5 °C 34347.6 hPa Calm   10.3 km/h 70 % 0 mm
01:02 -13.7 °C -16.5 °C 34347.6 hPa Calm   7.7 km/h 70 % 0 mm
01:12 -13.6 °C -16.4 °C 34347.6 hPa Calm   7.7 km/h 70 % 0 mm
01:17 -13.6 °C -16.4 °C 34347.6 hPa East 7.7 km/h 7.7 km/h 70 % 0 mm
01:22 -13.6 °C -16.3 °C 34347.6 hPa SE 7.7 km/h 10.3 km/h 71 % 0 mm
01:27 -13.6 °C -16.2 °C 34347.6 hPa ESE 5.1 km/h 18.2 km/h 72 % 0 mm
01:32 -13.6 °C -16.2 °C 34347.6 hPa SE 5.1 km/h 18.2 km/h 72 % 0 mm
01:37 -13.6 °C -16.1 °C 34347.6 hPa SE 7.7 km/h 18.2 km/h 73 % 0 mm
01:42 -13.6 °C -16.1 °C 34347.6 hPa SSE 2.6 km/h 23.3 km/h 73 % 0 mm
01:47 -13.7 °C -16.1 °C 34347.6 hPa SE 2.6 km/h 23.3 km/h 74 % 0 mm
01:52 -13.7 °C -15.9 °C 34347.6 hPa SE 23.3 km/h 23.3 km/h 75 % 0 mm
01:57 -13.7 °C -15.9 °C 34347.6 hPa SSE 5.1 km/h 18.2 km/h 76 % 0 mm
02:02 -13.7 °C -15.9 °C 34347.6 hPa South 10.3 km/h 25.9 km/h 76 % 0 mm
02:07 -13.7 °C -15.9 °C 34347.6 hPa South 2.6 km/h 25.9 km/h 76 % 0 mm
02:12 -13.7 °C -15.8 °C 34361.1 hPa SW 5.1 km/h 25.9 km/h 77 % 0 mm
02:17 -13.8 °C -15.9 °C 34347.6 hPa Calm   18.2 km/h 77 % 0 mm
02:22 -13.8 °C -15.8 °C 34347.6 hPa ESE 10.3 km/h 18.2 km/h 78 % 0 mm
02:27 -13.9 °C -15.8 °C 34347.6 hPa SSE 2.6 km/h 18.2 km/h 79 % 0 mm
02:32 -13.8 °C -15.8 °C 34347.6 hPa ESE 7.7 km/h 18.2 km/h 78 % 0 mm
02:37 -13.8 °C -15.8 °C 34361.1 hPa South 10.3 km/h 12.9 km/h 78 % 0 mm
02:42 -13.8 °C -15.7 °C 34347.6 hPa South 5.1 km/h 12.9 km/h 79 % 0 mm
02:47 -13.8 °C -15.7 °C 34361.1 hPa South 2.6 km/h 12.9 km/h 79 % 0 mm
02:52 -13.8 °C -15.8 °C 34361.1 hPa SE 2.6 km/h 12.9 km/h 78 % 0 mm
02:57 -13.8 °C -15.8 °C 34361.1 hPa SSE 2.6 km/h 15.6 km/h 78 % 0 mm
03:02 -13.8 °C -15.8 °C 34361.1 hPa Calm   15.6 km/h 78 % 0 mm
03:12 -13.8 °C -15.8 °C 34361.1 hPa SSE 5.1 km/h 12.9 km/h 78 % 0 mm
03:17 -13.7 °C -15.8 °C 34361.1 hPa SE 5.1 km/h 10.3 km/h 77 % 0 mm
03:22 -13.7 °C -15.8 °C 34361.1 hPa SSE 5.1 km/h 15.6 km/h 77 % 0 mm
03:27 -13.7 °C -15.8 °C 34361.1 hPa ESE 5.1 km/h 15.6 km/h 77 % 0 mm
03:32 -13.7 °C -15.7 °C 34361.1 hPa ESE 7.7 km/h 15.6 km/h 78 % 0 mm
03:37 -13.7 °C -15.7 °C 34361.1 hPa ESE 10.3 km/h 15.6 km/h 78 % 0 mm
03:42 -13.7 °C -15.7 °C 34361.1 hPa ESE 7.7 km/h 18.2 km/h 78 % 0 mm
03:47 -13.8 °C -15.8 °C 34361.1 hPa ESE 5.1 km/h 18.2 km/h 78 % 0 mm
03:57 -13.7 °C -15.8 °C 34361.1 hPa SE 10.3 km/h 18.2 km/h 77 % 0 mm
04:02 -13.7 °C -15.8 °C 34361.1 hPa SE 7.7 km/h 20.8 km/h 77 % 0 mm
04:17 -13.7 °C -15.6 °C 34371.3 hPa ESE 10.3 km/h 23.3 km/h 79 % 0 mm
04:22 -13.8 °C -15.6 °C 34371.3 hPa SSE 2.6 km/h 23.3 km/h 80 % 0 mm
04:27 -13.8 °C -15.6 °C 34371.3 hPa SE 10.3 km/h 23.3 km/h 80 % 0 mm
04:32 -13.9 °C -15.6 °C 34371.3 hPa Calm   18.2 km/h 81 % 0 mm
04:37 -13.9 °C -15.6 °C 34371.3 hPa ESE 7.7 km/h 20.8 km/h 82 % 0 mm
04:42 -13.9 °C -15.6 °C 34371.3 hPa SSE 2.6 km/h 23.3 km/h 82 % 0 mm
04:47 -13.9 °C -15.6 °C 34371.3 hPa SE 5.1 km/h 23.3 km/h 82 % 0 mm
04:52 -14 °C -15.5 °C 34371.3 hPa South 2.6 km/h 23.3 km/h 83 % 0 mm
04:57 -14 °C -15.5 °C 34384.8 hPa SSW 5.1 km/h 23.3 km/h 83 % 0 mm
05:02 -14.1 °C -15.6 °C 34371.3 hPa Calm   12.9 km/h 83 % 0 mm
05:07 -14.1 °C -15.6 °C 34371.3 hPa SE 2.6 km/h 12.9 km/h 83 % 0 mm
05:12 -14 °C -15.4 °C 34371.3 hPa WSW 7.7 km/h 12.9 km/h 84 % 0 mm
05:17 -14 °C -15.4 °C 34371.3 hPa SSE 5.1 km/h 12.9 km/h 84 % 0 mm
05:22 -14 °C -15.4 °C 34384.8 hPa SE 2.6 km/h 15.6 km/h 84 % 7.62 mm
05:27 -14 °C -15.3 °C 34384.8 hPa SSE 7.7 km/h 15.6 km/h 85 % 7.62 mm
05:32 -14 °C -15.3 °C 34384.8 hPa South 2.6 km/h 15.6 km/h 85 % 7.62 mm
05:42 -14.1 °C -15.3 °C 34384.8 hPa SE 2.6 km/h 10.3 km/h 86 % 7.62 mm
05:47 -14.1 °C -15.3 °C 34384.8 hPa Calm   10.3 km/h 86 % 7.62 mm
05:52 -14.1 °C -15.3 °C 34384.8 hPa Calm   10.3 km/h 85 % 7.62 mm
05:57 -14 °C -15.3 °C 34384.8 hPa SE 2.6 km/h 10.3 km/h 85 % 7.62 mm
06:02 -14.1 °C -15.3 °C 34384.8 hPa SE 2.6 km/h 10.3 km/h 85 % 7.62 mm
06:12 -14.1 °C -15.3 °C 34395 hPa SSE 2.6 km/h 18.2 km/h 86 % 7.62 mm
06:17 -14.1 °C -15.3 °C 34395 hPa SW 10.3 km/h 18.2 km/h 86 % 7.62 mm
06:22 -14.2 °C -15.3 °C 34395 hPa South 2.6 km/h 10.3 km/h 87 % 0 mm
06:32 -14.2 °C -15.2 °C 34405.1 hPa SE 2.6 km/h 10.3 km/h 88 % 0 mm
06:37 -14.3 °C -15.3 °C 34405.1 hPa Calm   12.9 km/h 88 % 12.7 mm
06:42 -14.3 °C -15.3 °C 34405.1 hPa ESE 2.6 km/h 12.9 km/h 89 % 12.7 mm
06:47 -14.4 °C -15.3 °C 34405.1 hPa Calm   12.9 km/h 89 % 12.7 mm
06:52 -14.4 °C -15.3 °C 34405.1 hPa ESE 5.1 km/h 7.7 km/h 89 % 20.32 mm
07:02 -14.5 °C -15.3 °C 34405.1 hPa SE 5.1 km/h 7.7 km/h 90 % 20.32 mm
07:12 -14.6 °C -15.3 °C 34405.1 hPa SE 2.6 km/h 10.3 km/h 91 % 38.1 mm
07:17 -14.6 °C -15.4 °C 34405.1 hPa Calm   10.3 km/h 91 % 38.1 mm
07:22 -14.7 °C -15.4 °C 34405.1 hPa Calm   7.7 km/h 91 % 38.1 mm
07:32 -14.8 °C -15.4 °C 34405.1 hPa Calm   5.1 km/h 92 % 38.1 mm
07:37 -14.8 °C -15.4 °C 34405.1 hPa ENE 2.6 km/h 5.1 km/h 92 % 38.1 mm
07:42 -14.7 °C -15.4 °C 34405.1 hPa Calm   5.1 km/h 92 % 33.02 mm
07:47 -14.8 °C -15.4 °C 34405.1 hPa Calm   5.1 km/h 92 % 33.02 mm
07:52 -14.8 °C -15.5 °C 34405.1 hPa Calm   5.1 km/h 92 % 33.02 mm
07:57 -14.8 °C -15.4 °C 34405.1 hPa Calm   5.1 km/h 93 % 33.02 mm
08:02 -14.8 °C -15.3 °C 34418.7 hPa SSE 5.1 km/h 5.1 km/h 93 % 33.02 mm
08:07 -14.8 °C -15.3 °C 34418.7 hPa Calm   5.1 km/h 93 % 33.02 mm
08:12 -14.8 °C -15.3 °C 34418.7 hPa Calm   10.3 km/h 93 % 33.02 mm
08:17 -14.8 °C -15.3 °C 34418.7 hPa Calm   10.3 km/h 93 % 33.02 mm
08:22 -14.8 °C -15.3 °C 34428.8 hPa Calm   10.3 km/h 93 % 38.1 mm
08:32 -14.8 °C -15.3 °C 34428.8 hPa Calm   5.1 km/h 94 % 38.1 mm
08:37 -14.8 °C -15.3 °C 34428.8 hPa Calm   5.1 km/h 94 % 38.1 mm
08:42 -14.8 °C -15.3 °C 34428.8 hPa Calm   5.1 km/h 94 % 38.1 mm
08:47 -14.7 °C -15.2 °C 34428.8 hPa Calm   5.1 km/h 94 % 38.1 mm
08:52 -14.7 °C -15.2 °C 34428.8 hPa Calm   5.1 km/h 94 % 33.02 mm
08:57 -14.7 °C -15.2 °C 34442.4 hPa Calm   5.1 km/h 94 % 33.02 mm
09:02 -14.8 °C -15.3 °C 34428.8 hPa Calm   5.1 km/h 94 % 20.32 mm
09:07 -14.7 °C -15.2 °C 34442.4 hPa East 5.1 km/h 5.1 km/h 94 % 20.32 mm
09:12 -14.7 °C -15.2 °C 34442.4 hPa Calm   5.1 km/h 94 % 12.7 mm
09:17 -14.8 °C -15.3 °C 34442.4 hPa Calm   5.1 km/h 94 % 12.7 mm
09:22 -14.8 °C -15.3 °C 34442.4 hPa Calm   5.1 km/h 94 % 7.62 mm
09:32 -14.8 °C -15.3 °C 34442.4 hPa Calm   5.1 km/h 94 % 7.62 mm
09:42 -14.8 °C -15.3 °C 34442.4 hPa Calm   5.1 km/h 94 % 12.7 mm
09:47 -14.7 °C -15.1 °C 34442.4 hPa Calm   5.1 km/h 95 % 12.7 mm
09:52 -14.7 °C -15.1 °C 34442.4 hPa Calm   7.7 km/h 95 % 12.7 mm
09:57 -14.7 °C -15.1 °C 34442.4 hPa Calm   7.7 km/h 95 % 12.7 mm
10:02 -14.6 °C -15 °C 34442.4 hPa Calm   5.1 km/h 95 % 12.7 mm
10:12 -14.6 °C -14.9 °C 34442.4 hPa Calm   5.1 km/h 95 % 20.32 mm
10:22 -14.5 °C -14.9 °C 34452.6 hPa SE 2.6 km/h 2.6 km/h 95 % 20.32 mm
10:32 -14.5 °C -14.9 °C 34452.6 hPa SE 5.1 km/h 5.1 km/h 95 % 20.32 mm
10:42 -14.4 °C -14.8 °C 34452.6 hPa SSE 2.6 km/h 5.1 km/h 95 % 12.7 mm
10:47 -14.4 °C -14.8 °C 34452.6 hPa Calm   5.1 km/h 95 % 12.7 mm
10:52 -14.4 °C -14.8 °C 34462.7 hPa SSE 5.1 km/h 7.7 km/h 95 % 12.7 mm
10:57 -14.4 °C -14.8 °C 34462.7 hPa SSW 2.6 km/h 7.7 km/h 95 % 12.7 mm
11:02 -14.4 °C -14.8 °C 34462.7 hPa SW 5.1 km/h 12.9 km/h 95 % 12.7 mm
11:12 -14.4 °C -14.8 °C 34462.7 hPa SW 2.6 km/h 10.3 km/h 95 % 7.62 mm
11:17 -14.4 °C -14.8 °C 34462.7 hPa SW 7.7 km/h 10.3 km/h 95 % 7.62 mm
11:22 -14.4 °C -14.7 °C 34462.7 hPa WSW 2.6 km/h 7.7 km/h 96 % 0 mm
11:27 -14.4 °C -14.7 °C 34462.7 hPa SW 5.1 km/h 7.7 km/h 96 % 0 mm
11:32 -14.4 °C -14.7 °C 34462.7 hPa SW 2.6 km/h 10.3 km/h 96 % 0 mm
11:37 -14.3 °C -14.7 °C 34476.3 hPa Calm   10.3 km/h 96 % 0 mm
11:42 -14.3 °C -14.7 °C 34476.3 hPa Calm   10.3 km/h 96 % 0 mm
11:47 -14.3 °C -14.7 °C 34476.3 hPa Calm   10.3 km/h 95 % 0 mm
11:52 -14.3 °C -14.7 °C 34476.3 hPa Calm   7.7 km/h 95 % 7.62 mm
12:02 -14.4 °C -14.7 °C 34462.7 hPa SW 2.6 km/h 5.1 km/h 96 % 7.62 mm
12:12 -14.4 °C -14.8 °C 34462.7 hPa SSW 2.6 km/h 5.1 km/h 95 % 12.7 mm
12:17 -14.4 °C -14.7 °C 34462.7 hPa SSW 2.6 km/h 7.7 km/h 96 % 12.7 mm
12:22 -14.4 °C -14.7 °C 34476.3 hPa SSW 5.1 km/h 7.7 km/h 96 % 12.7 mm
12:32 -14.3 °C -14.7 °C 34476.3 hPa SSW 10.3 km/h 10.3 km/h 96 % 12.7 mm
12:37 -14.3 °C -14.7 °C 34476.3 hPa SSW 5.1 km/h 15.6 km/h 96 % 12.7 mm
12:42 -14.3 °C -14.7 °C 34476.3 hPa SSW 2.6 km/h 15.6 km/h 96 % 12.7 mm
12:47 -14.3 °C -14.7 °C 34476.3 hPa SSW 2.6 km/h 12.9 km/h 96 % 12.7 mm
12:52 -14.4 °C -14.7 °C 34462.7 hPa SW 2.6 km/h 12.9 km/h 96 % 12.7 mm
12:57 -14.4 °C -14.7 °C 34476.3 hPa SW 2.6 km/h 10.3 km/h 96 % 12.7 mm
13:02 -14.3 °C -14.7 °C 34462.7 hPa Calm   7.7 km/h 96 % 20.32 mm
13:07 -14.3 °C -14.7 °C 34462.7 hPa SW 2.6 km/h 7.7 km/h 96 % 20.32 mm
13:12 -14.4 °C -14.7 °C 34462.7 hPa SW 5.1 km/h 7.7 km/h 96 % 20.32 mm
13:22 -14.3 °C -14.7 °C 34462.7 hPa South 5.1 km/h 12.9 km/h 96 % 25.4 mm
13:27 -14.3 °C -14.7 °C 34462.7 hPa SSW 5.1 km/h 12.9 km/h 96 % 33.02 mm
13:32 -14.4 °C -14.7 °C 34462.7 hPa SSW 5.1 km/h 12.9 km/h 96 % 33.02 mm
13:37 -14.4 °C -14.7 °C 34462.7 hPa SSW 2.6 km/h 10.3 km/h 96 % 33.02 mm
13:42 -14.3 °C -14.7 °C 34462.7 hPa SSW 2.6 km/h 10.3 km/h 96 % 33.02 mm
13:47 -14.3 °C -14.7 °C 34462.7 hPa South 2.6 km/h 7.7 km/h 96 % 33.02 mm
13:52 -14.3 °C -14.7 °C 34462.7 hPa SSE 2.6 km/h 7.7 km/h 96 % 33.02 mm
13:57 -14.3 °C -14.6 °C 34462.7 hPa Calm   7.7 km/h 96 % 25.4 mm
14:02 -14.3 °C -14.7 °C 34462.7 hPa SSW 2.6 km/h 7.7 km/h 96 % 25.4 mm
14:07 -14.3 °C -14.7 °C 34462.7 hPa SSW 2.6 km/h 7.7 km/h 96 % 20.32 mm
14:12 -14.3 °C -14.5 °C 34462.7 hPa SSW 2.6 km/h 7.7 km/h 97 % 20.32 mm
14:17 -14.3 °C -14.6 °C 34462.7 hPa SW 5.1 km/h 10.3 km/h 96 % 20.32 mm
14:22 -14.3 °C -14.6 °C 34462.7 hPa SSW 7.7 km/h 10.3 km/h 96 % 12.7 mm
14:27 -14.2 °C -14.6 °C 34462.7 hPa SSW 5.1 km/h 10.3 km/h 96 % 20.32 mm
14:32 -14.2 °C -14.4 °C 34462.7 hPa SSW 2.6 km/h 10.3 km/h 97 % 20.32 mm
14:37 -14.1 °C -14.3 °C 34462.7 hPa SSW 5.1 km/h 12.9 km/h 97 % 12.7 mm
14:42 -14.1 °C -14.3 °C 34462.7 hPa South 2.6 km/h 12.9 km/h 97 % 20.32 mm
14:47 -14.1 °C -14.4 °C 34462.7 hPa South 5.1 km/h 12.9 km/h 96 % 20.32 mm
14:52 -14.1 °C -14.4 °C 34462.7 hPa SSW 5.1 km/h 12.9 km/h 96 % 20.32 mm
14:57 -14.1 °C -14.4 °C 34462.7 hPa SSW 2.6 km/h 5.1 km/h 96 % 20.32 mm
15:02 -14.1 °C -14.3 °C 34462.7 hPa SSW 7.7 km/h 7.7 km/h 97 % 20.32 mm
15:12 -14.1 °C -14.3 °C 34476.3 hPa SSW 5.1 km/h 10.3 km/h 97 % 20.32 mm
15:17 -14.1 °C -14.3 °C 34476.3 hPa South 5.1 km/h 12.9 km/h 97 % 20.32 mm
15:22 -14.1 °C -14.3 °C 34476.3 hPa SW 7.7 km/h 12.9 km/h 97 % 12.7 mm
15:27 -14.1 °C -14.3 °C 34486.4 hPa SW 5.1 km/h 15.6 km/h 97 % 12.7 mm
15:32 -14.1 °C -14.3 °C 34486.4 hPa SW 5.1 km/h 15.6 km/h 97 % 12.7 mm
15:37 -14.1 °C -14.3 °C 34486.4 hPa SW 10.3 km/h 10.3 km/h 97 % 12.7 mm
15:42 -14 °C -14.2 °C 34486.4 hPa SW 10.3 km/h 12.9 km/h 97 % 12.7 mm
15:47 -14.1 °C -14.3 °C 34486.4 hPa WSW 7.7 km/h 12.9 km/h 97 % 12.7 mm
15:52 -14 °C -14.2 °C 34486.4 hPa SW 7.7 km/h 12.9 km/h 97 % 12.7 mm
15:57 -14.1 °C -14.3 °C 34486.4 hPa SSW 5.1 km/h 15.6 km/h 97 % 7.62 mm
16:02 -14.1 °C -14.3 °C 34486.4 hPa SSW 2.6 km/h 15.6 km/h 97 % 7.62 mm
16:07 -14.1 °C -14.3 °C 34496.6 hPa SW 2.6 km/h 12.9 km/h 97 % 7.62 mm
16:12 -14.1 °C -14.3 °C 34496.6 hPa SW 5.1 km/h 12.9 km/h 97 % 7.62 mm
16:17 -14.1 °C -14.3 °C 34496.6 hPa SSW 7.7 km/h 12.9 km/h 97 % 0 mm
16:22 -14 °C -14.2 °C 34496.6 hPa SW 10.3 km/h 10.3 km/h 97 % 0 mm
16:27 -14 °C -14.2 °C 34496.6 hPa SW 12.9 km/h 12.9 km/h 97 % 0 mm
16:32 -14 °C -14.2 °C 34496.6 hPa SW 5.1 km/h 20.8 km/h 97 % 0 mm
16:37 -14 °C -14.3 °C 34496.6 hPa SW 7.7 km/h 20.8 km/h 96 % 0 mm
16:42 -14 °C -14.3 °C 34510.1 hPa SW 12.9 km/h 20.8 km/h 96 % 0 mm
16:47 -14 °C -14.3 °C 34510.1 hPa SSW 7.7 km/h 20.8 km/h 96 % 0 mm
16:52 -14.1 °C -14.4 °C 34510.1 hPa SW 5.1 km/h 15.6 km/h 96 % 0 mm
16:57 -14.1 °C -14.4 °C 34510.1 hPa SW 5.1 km/h 15.6 km/h 96 % 0 mm
17:02 -14.1 °C -14.4 °C 34510.1 hPa SW 5.1 km/h 12.9 km/h 96 % 0 mm
17:07 -14.1 °C -14.4 °C 34510.1 hPa SW 5.1 km/h 10.3 km/h 96 % 0 mm
17:12 -14.1 °C -14.4 °C 34510.1 hPa SW 5.1 km/h 10.3 km/h 96 % 0 mm
17:17 -14.2 °C -14.5 °C 34510.1 hPa SW 10.3 km/h 10.3 km/h 96 % 0 mm
17:22 -14.2 °C -14.5 °C 34510.1 hPa SW 7.7 km/h 10.3 km/h 96 % 0 mm
17:27 -14.2 °C -14.6 °C 34510.1 hPa SW 5.1 km/h 12.9 km/h 96 % 0 mm
17:32 -14.3 °C -14.6 °C 34520.3 hPa SW 5.1 km/h 12.9 km/h 96 % 0 mm
17:37 -14.3 °C -14.6 °C 34520.3 hPa SSW 5.1 km/h 12.9 km/h 96 % 0 mm
17:42 -14.3 °C -14.7 °C 34520.3 hPa SW 5.1 km/h 7.7 km/h 96 % 0 mm
17:47 -14.3 °C -14.6 °C 34520.3 hPa SSW 2.6 km/h 7.7 km/h 97 % 0 mm
17:52 -14.3 °C -14.6 °C 34520.3 hPa SSW 5.1 km/h 10.3 km/h 97 % 0 mm
17:57 -14.3 °C -14.7 °C 34533.8 hPa WSW 5.1 km/h 15.6 km/h 96 % 0 mm
18:02 -14.4 °C -14.7 °C 34533.8 hPa SW 5.1 km/h 15.6 km/h 96 % 0 mm
18:12 -14.4 °C -14.6 °C 34533.8 hPa SW 5.1 km/h 15.6 km/h 97 % 0 mm
18:17 -14.4 °C -14.6 °C 34533.8 hPa SW 5.1 km/h 10.3 km/h 97 % 0 mm
18:22 -14.4 °C -14.7 °C 34533.8 hPa WSW 5.1 km/h 10.3 km/h 97 % 0 mm
18:32 -14.6 °C -14.9 °C 34544 hPa Calm   10.3 km/h 96 % 0 mm
18:42 -14.9 °C -15.3 °C 34544 hPa Calm   5.1 km/h 95 % 0 mm
18:47 -15.1 °C -15.4 °C 34544 hPa Calm     96 % 0 mm
18:57 -15.2 °C -15.6 °C 34544 hPa Calm     96 % 0 mm
19:02 -15.2 °C -15.4 °C 34544 hPa Calm     97 % 0 mm
19:07 -15.2 °C -15.4 °C 34554.1 hPa Calm     97 % 0 mm
19:12 -15.2 °C -15.4 °C 34554.1 hPa Calm     97 % 0 mm
19:17 -15.4 °C -15.7 °C 34554.1 hPa Calm     96 % 0 mm
19:22 -15.6 °C -15.9 °C 34554.1 hPa Calm     96 % 0 mm
19:32 -15.8 °C -16.2 °C 34554.1 hPa Calm     96 % 0 mm
19:37 -15.9 °C -16.3 °C 34554.1 hPa Calm     96 % 0 mm
19:42 -16 °C -16.3 °C 34554.1 hPa Calm     96 % 0 mm
19:47 -16.1 °C -16.4 °C 34554.1 hPa Calm     96 % 0 mm
19:52 -16.2 °C -16.5 °C 34554.1 hPa Calm     96 % 0 mm
19:57 -16.3 °C -16.6 °C 34554.1 hPa Calm     96 % 0 mm
20:02 -16.3 °C -16.7 °C 34554.1 hPa Calm     96 % 0 mm
20:07 -16.4 °C -16.8 °C 34554.1 hPa Calm     96 % 0 mm
20:12 -16.5 °C -16.8 °C 34567.7 hPa Calm     96 % 0 mm
20:17 -16.6 °C -16.8 °C 34554.1 hPa Calm     97 % 0 mm
20:22 -16.4 °C -16.7 °C 34567.7 hPa Calm     97 % 0 mm
20:27 -16.3 °C -16.6 °C 34567.7 hPa Calm     97 % 0 mm
20:32 -16.4 °C -16.6 °C 34567.7 hPa Calm     97 % 0 mm
20:37 -16.3 °C -16.6 °C 34567.7 hPa Calm     97 % 0 mm
20:42 -16.3 °C -16.6 °C 34567.7 hPa Calm     97 % 0 mm
20:47 -16.3 °C -16.6 °C 34567.7 hPa Calm     97 % 7.62 mm
20:52 -16.4 °C -16.6 °C 34577.8 hPa Calm     97 % 7.62 mm
20:57 -16.4 °C -16.7 °C 34577.8 hPa Calm     97 % 7.62 mm
21:02 -16.4 °C -16.7 °C 34577.8 hPa Calm     97 % 7.62 mm
21:07 -16.5 °C -16.7 °C 34577.8 hPa Calm     97 % 7.62 mm
21:12 -16.6 °C -16.8 °C 34577.8 hPa Calm     97 % 7.62 mm
21:17 -16.6 °C -16.8 °C 34577.8 hPa Calm     97 % 7.62 mm
21:22 -16.8 °C -17 °C 34577.8 hPa Calm     97 % 7.62 mm
21:27 -16.8 °C -17 °C 34577.8 hPa Calm     97 % 7.62 mm
21:32 -16.8 °C -17.1 °C 34577.8 hPa Calm     97 % 7.62 mm
21:37 -16.8 °C -17.1 °C 34591.4 hPa Calm     97 % 0 mm
21:47 -17 °C -17.2 °C 34591.4 hPa Calm     97 % 0 mm
21:52 -17 °C -17.2 °C 34591.4 hPa Calm     97 % 0 mm
21:57 -16.9 °C -17.1 °C 34591.4 hPa Calm     97 % 0 mm
22:02 -17.1 °C -17.3 °C 34591.4 hPa Calm     97 % 0 mm
22:12 -17.3 °C -17.5 °C 34591.4 hPa Calm     97 % 0 mm
22:17 -17.3 °C -17.6 °C 34591.4 hPa Calm     97 % 0 mm
22:22 -17.4 °C -17.7 °C 34591.4 hPa Calm     97 % 0 mm
22:27 -17.4 °C -17.7 °C 34591.4 hPa Calm     97 % 0 mm
22:32 -17.5 °C -17.7 °C 34591.4 hPa Calm     97 % 0 mm
22:37 -17.6 °C -17.8 °C 34591.4 hPa Calm     97 % 0 mm
22:42 -17.6 °C -17.8 °C 34601.5 hPa Calm     97 % 0 mm
22:47 -17.6 °C -17.8 °C 34591.4 hPa Calm     97 % 0 mm
22:52 -17.6 °C -17.8 °C 34601.5 hPa Calm     97 % 0 mm
22:57 -17.5 °C -17.7 °C 34601.5 hPa Calm     97 % 0 mm
23:02 -17.6 °C -17.8 °C 34601.5 hPa Calm     97 % 0 mm
23:07 -17.7 °C -17.9 °C 34601.5 hPa Calm     97 % 0 mm
23:12 -17.7 °C -17.9 °C 34601.5 hPa Calm     97 % 0 mm
23:17 -17.8 °C -18.1 °C 34601.5 hPa Calm     97 % 0 mm
23:22 -17.8 °C -18.1 °C 34601.5 hPa Calm     97 % 0 mm
23:32 -17.8 °C -18.1 °C 34601.5 hPa Calm     97 % 0 mm
23:37 -17.8 °C -18.1 °C 34601.5 hPa Calm     97 % 0 mm
23:42 -17.9 °C -18.1 °C 34601.5 hPa Calm     97 % 0 mm
23:52 -18 °C -18.2 °C 34601.5 hPa Calm   2.6 km/h 97 % 0 mm
23:57 -18 °C -18.2 °C 34601.5 hPa Calm   2.6 km/h 97 % 0 mm
Meteo18
Compliments of Weather Underground - 4 mb

Script developed by  Jim McMurry - jmcmurry@mwt.net Adapted for the template by  Wim van der Kuil - Leuven-Template.eu

You find our weather info also at:

European Weather Network

Weather Underground

Equipment we use:

Weather-station
Davis Vue

Weather-program
Meteobridge

Weather-server
Raspberry PI 2 B+

Provider
1 and 1

Davis Vue

Meteobridge

Raspberry PI 2 B+

1 and 1